KTEXKASE

Guest
Details From KTEX - Telluride Rgnl
To KASE - Aspen Pitkin Co Sardy Fld
Flight Number -
Tags generated
Created
Modified
Stats Distance 91 nm / 168 km
Max Altitude 11,200 ft / 3,414 m
Waypoints 3
Social Downloads 2
Likes 0
Share VATSIM

Download

Looking for another format? Having issues loading an existing format? Contact us
Advertisement - Login to hide

Notes

Basic altitude profile: - Ascent Rate: 2500ft/min - Ascent Speed: 250kts - Cruise Altitude: 35000ft - Cruise Speed: 420kts - Descent Rate: 1500ft/min - Descent Speed: 250kts

Route

KTEX MEYRS KASE

ID Type Via Altitude Latitude Longitude Leg Dist Tot Dist Heading (true) Name
O KTEX APT - 0 ft / 0 m 37.95381˚ -107.90874˚ - 0 nm - Telluride Rgnl
MEYRS FIX - 11,200 ft / 3,414 m 38.47966˚ -107.46276˚ 37 nm 37 nm 34° / 34° -
O KASE APT - 0 ft / 0 m 39.22316˚ -106.86885˚ 52 nm 90 nm 32° / 32° Aspen Pitkin Co Sardy Fld

Altitude Profile

Advertisement - Login to hide

KTEX

Details ICAO KTEX (TEX)
Name Telluride Rgnl
Region United States
Timezone America/Denver (UTC-7.0)
Stats Elevation 9,078 ft / 2,767 m (AMSL)
Location 37.953812° -107.908742°
Runways 1
Magnetic Variation 9.421° E

METAR

KTEX 120815Z AUTO 13006KT 10SM CLR M01/M17 A3057 RMK AO2 T10121168

Decode

TAF

TAF KTEX 120520Z 1206/1306 13004KT P6SM SKC FM122000 31005KT P6SM SKC FM130300 14004KT P6SM SKC

Decode

Departure Runways

ID Width Length Bearing (true) Bearing (mag) Surface Threshold Offset Overrun Length
09 98 ft / 30 m 7,095 ft / 2,163 m 104.96° 95.54° Asphalt 200 ft / 61 m 400 ft / 122 m
27 98 ft / 30 m 7,095 ft / 2,163 m 284.98° 275.56° Asphalt 200 ft / 61 m 400 ft / 122 m

KASE

Details ICAO KASE (ASE)
Name Aspen Pitkin Co Sardy Fld
Region United States
Timezone America/Denver (UTC-7.0)
Stats Elevation 7,820 ft / 2,384 m (AMSL)
Location 39.223164° -106.868847°
Runways 1
Magnetic Variation 9.097° E

METAR

KASE 120753Z AUTO 21004KT 10SM CLR M07/M12 A3054 RMK AO2 SLP321 T10671117

Decode

TAF

TAF KASE 120520Z 1206/1306 21006KT P6SM SKC FM121400 VRB03KT P6SM SKC FM122000 35004KT P6SM SKC FM130200 21005KT P6SM SKC

Decode

Destination Runways

ID Width Length Bearing (true) Bearing (mag) Surface Threshold Offset Overrun Length
15 100 ft / 30 m 7,011 ft / 2,137 m 159.71° 150.61° Asphalt 0 ft / 0 m 499 ft / 152 m
33 100 ft / 30 m 7,011 ft / 2,137 m 339.71° 330.61° Asphalt 0 ft / 0 m 0 ft / 0 m

Approach Navaids

Runway Type Ident Frequency Range Bearing (true) Bearing (mag) Slope Elevation
15 Localiser IPKN 108.50 MHz 25 nm / 46 km 312.00° 302.90° - 10,768 ft / 3,282 m (AMSL)
15 Localiser IASE 111.15 MHz 18 nm / 33 km 159.71° 150.62° - 7,832 ft / 2,387 m (AMSL)
15 DME IASE 111.15 MHz 18 nm / 33 km - - - 7,830 ft / 2,387 m (AMSL)

Popular Alternatives